Indian Valley Lake Weather Center

Moon Phase Calendar



Indian Valley Lake Water Level
Online Cameras

 


      

Current Conditions in Indian Springs Village
11/28/2020 12:51:33 PM

64°F
Feels Like 63
Clouds
Humidity
65%
Pressure
30.09"
Wind
2 mph (W)
Dew Point
52°F
UV Index
2/10 (Low)
Visibility
6 mi

Hourly Forecast

Date & Time Sat, Nov 28
12:00 PM
Sat, Nov 28
1:00 PM
Sat, Nov 28
2:00 PM
Sat, Nov 28
3:00 PM
Sat, Nov 28
4:00 PM
Sat, Nov 28
5:00 PM
Sat, Nov 28
6:00 PM
Sat, Nov 28
7:00 PM
Sat, Nov 28
8:00 PM
Sat, Nov 28
9:00 PM
Sat, Nov 28
10:00 PM
Sat, Nov 28
11:00 PM
Sun, Nov 29
12:00 AM
Sun, Nov 29
1:00 AM
Sun, Nov 29
2:00 AM
Sun, Nov 29
3:00 AM
Sun, Nov 29
4:00 AM
Sun, Nov 29
5:00 AM
Sun, Nov 29
6:00 AM
Sun, Nov 29
7:00 AM
Sun, Nov 29
8:00 AM
Sun, Nov 29
9:00 AM
Sun, Nov 29
10:00 AM
Sun, Nov 29
11:00 AM
Sun, Nov 29
12:00 PM
Sun, Nov 29
1:00 PM
Sun, Nov 29
2:00 PM
Sun, Nov 29
3:00 PM
Sun, Nov 29
4:00 PM
Sun, Nov 29
5:00 PM
Sun, Nov 29
6:00 PM
Sun, Nov 29
7:00 PM
Sun, Nov 29
8:00 PM
Sun, Nov 29
9:00 PM
Sun, Nov 29
10:00 PM
Sun, Nov 29
11:00 PM
Mon, Nov 30
12:00 AM
Mon, Nov 30
1:00 AM
Mon, Nov 30
2:00 AM
Mon, Nov 30
3:00 AM
Mon, Nov 30
4:00 AM
Mon, Nov 30
5:00 AM
Mon, Nov 30
6:00 AM
Mon, Nov 30
7:00 AM
Mon, Nov 30
8:00 AM
Mon, Nov 30
9:00 AM
Mon, Nov 30
10:00 AM
Mon, Nov 30
11:00 AM
Condition
Clouds

Clouds

Clouds

Clouds

Clouds

Clouds

Clouds

Clouds

Clouds

Clouds

Clouds

Clouds

Clouds

Clouds

Clouds

Clouds

Clouds

Clouds

Clouds

Clouds

Clouds

Clouds

Clouds

Clouds

Clouds

Clouds

Rain

Rain

Rain

Rain

Rain

Rain

Rain

Rain

Rain

Rain

Rain

Rain

Clouds

Clouds

Clouds

Clouds

Clouds

Clear

Clear

Clear

Clouds

Clouds
Temperature 64°F65°F64°F64°F61°F58°F56°F56°F55°F55°F54°F53°F53°F53°F53°F52°F52°F51°F51°F52°F54°F57°F60°F61°F62°F62°F61°F60°F59°F59°F59°F59°F58°F58°F52°F51°F50°F49°F48°F47°F46°F45°F43°F42°F43°F45°F45°F44°F
Feels Like 62°F62°F61°F60°F57°F54°F53°F52°F51°F51°F51°F50°F50°F50°F49°F49°F48°F47°F48°F48°F51°F54°F57°F59°F61°F62°F61°F59°F57°F58°F56°F56°F57°F58°F44°F44°F43°F42°F41°F39°F38°F36°F34°F34°F35°F37°F36°F36°F
Cloudiness 64%82%92%98%100%100%100%100%100%100%100%100%100%100%100%100%100%100%100%100%100%100%100%100%100%100%100%100%100%100%100%100%100%100%100%100%100%100%100%93%94%96%93%0%0%2%21%37%
Visibility 6 mi6 mi6 mi6 mi6 mi6 mi6 mi6 mi6 mi6 mi6 mi6 mi6 mi6 mi6 mi6 mi6 mi6 mi6 mi6 mi6 mi6 mi6 mi6 mi6 mi6 mi6 mi4 mi6 mi6 mi6 mi6 mi6 mi5 mi5 mi4 mi6 mi6 mi6 mi6 mi6 mi6 mi6 mi6 mi6 mi6 mi6 mi6 mi
Precipitation 0%0%0%0%0%0%0%0%0%0%0%0%0%0%0%0%0%0%0%0%0%0%0%0%0%51%82%100%100%100%100%100%100%100%100%100%100%87%71%49%45%28%22%0%0%0%0%0%
Humidity 65%58%56%55%61%66%68%69%70%70%70%72%73%73%72%72%72%73%73%73%71%72%76%80%80%83%87%92%92%93%93%93%93%94%88%89%87%87%85%84%85%79%78%80%78%76%77%79%
Dew Point 52°F50°F48°F47°F47°F47°F46°F46°F45°F45°F45°F45°F45°F45°F44°F44°F43°F43°F43°F44°F45°F48°F52°F55°F56°F57°F57°F57°F57°F57°F57°F57°F57°F57°F49°F48°F46°F45°F44°F43°F42°F39°F37°F36°F37°F38°F38°F38°F
Pressure 30.09"30.09"30.06"30.06"30.09"30.09"30.09"30.12"30.12"30.12"30.12"30.09"30.09"30.06"30.06"30.09"30.06"30.06"30.06"30.06"30.06"30.06"30.06"30.03"30"29.97"29.94"29.91"29.91"29.85"29.85"29.83"29.83"29.83"29.83"29.85"29.85"29.88"29.88"29.88"29.91"29.91"29.94"29.94"29.97"29.97"29.97"29.97"
Wind Speed 5.3 mph3.8 mph5.1 mph6 mph6 mph5.9 mph4 mph4.3 mph4 mph3.6 mph3.8 mph3.2 mph3.1 mph3.8 mph4.5 mph3.7 mph3.4 mph4.8 mph3.4 mph3.7 mph4.4 mph5.2 mph5.1 mph5.9 mph5.9 mph3.8 mph5.1 mph5.6 mph8 mph5.9 mph7.7 mph7.7 mph5.3 mph3.4 mph14.8 mph11.7 mph10.7 mph9.8 mph9.9 mph11.1 mph11.2 mph12 mph9.4 mph8.2 mph8.9 mph9.8 mph10.1 mph9 mph
Wind
Direction
14°
NNE
356°
N
352°
N
348°
NNW
359°
N

N
352°
N
12°
NNE
26°
NNE
22°
NNE
45°
NE
49°
NE
69°
ENE
60°
ENE
60°
ENE
69°
ENE
73°
ENE
81°
E
82°
E
92°
E
105°
ESE
115°
ESE
132°
SE
137°
SE
149°
SSE
139°
SE
135°
SE
125°
SE
115°
ESE
121°
ESE
121°
ESE
128°
SE
149°
SSE
227°
SW
327°
NNW
310°
NW
322°
NW
320°
NW
322°
NW
309°
NW
306°
NW
311°
NW
312°
NW
308°
NW
308°
NW
307°
NW
305°
NW
299°
WNW

Daily Forecast

Date High Low Precip. Humidity
Today
Nov 28

Clouds
65 °F
53 °F
12%
59%
Sunday
Nov 29

Rain
62 °F
51 °F
100%
80%
Monday
Nov 30

Rain
50 °F
34 °F
100%
80%
Tuesday
Dec 1

Clear
46 °F
29 °F
0%
55%
Wednesday
Dec 2

Clear
55 °F
33 °F
0%
45%
Thursday
Dec 3

Rain
53 °F
42 °F
90%
50%
Friday
Dec 4

Rain
51 °F
45 °F
100%
94%
Saturday
Dec 5

Snow
46 °F
35 °F
26%
55%
Sunday
Dec 6

Clear
52 °F
31 °F
0%
49%
Monday
Dec 7

Clear
52 °F
37 °F
0%
47%
Tuesday
Dec 8

Clouds
50 °F
34 °F
0%
47%
Wednesday
Dec 9

Clouds
54 °F
38 °F
0%
78%
Thursday
Dec 10

Clear
58 °F
42 °F
0%
38%
Friday
Dec 11

Clear
63 °F
42 °F
0%
53%
Saturday
Dec 12

Rain
52 °F
45 °F
54%
81%
Sunday
Dec 13

Rain
59 °F
45 °F
46%
80%


Temperature 8-14 Day Outlook



Precipitation 8-14 Day Outlook




Quick Links
Indian Valley Lake News
Indian Valley Lake Photos
Indian Valley Lake Videos




About Us
Contact Us
Site Map
Search Site
Advertise With Us
   
IndianValley.LakesOnline.com
THE INDIAN VALLEY LAKE WEBSITE

Copyright 2020, Lakes Online
Privacy    |    Legal